Powrót do katalogu

CZ-6A DEB

AktywnyPO
NORAD 60854·DEBRIS·🇨🇳 China

Wystrzelony Aug 6, 2024 z Taiyuan Satellite Launch Center

Loading…

Następne Przeloty (najbliższe 24 godziny)

TLE

ŚwieżeSource: Space-Track

Epoka: Sep 14, 2026, 10:07 UTC

1 60854U 24140JH  26257.42216988  .00004880  00000-0  74991-3 0  9999
2 60854  88.9462 253.2536 0094313 277.5723  81.4790 14.70416589111299

Śledź CZ-6A DEB w czasie rzeczywistym z AllMySat

Download on the App Store